www.pogodaiklimat.ru

Погода и климат >> Архив погоды >> Албания >> Shkodra


ПОГОДА в Shkodra

  • Прогноз погоды в Shkodra
  • Монитор погоды в Shkodra
  • Климат города

АРХИВ ПОГОДЫ в Shkodra

Время (UTC), дата Ветер
(напр.,м/с)
 
Видим.   Явления Облачность Т
(С)
Тd
(С)
f
(%)
Тe
(С)
Тes
(С)
Комфортность P
(гПа)
Po
(гПа)
Тmin
(С)
Tmax
(С)
R
(мм)
R24
(мм)
S
(см)
18 12.09 ЮВ 6 12 км {дождь} 5/3 1200 м
[Cu med, cong Ac trans]
+23.4 +18.9 76 +30 +30 очень
душно
1013.2 1008.2 +25.2 2
21 12.09 В 6 10 км 5/0
[Ac trans]
+21.4 +18.9 86 +26 +26 душно 1014.8 1009.8
00 13.09 В 6 10 км ясно +19.4 +17.7 90 +21 +21 комфорт 1015.4 1010.3
03 13.09 В 6 10 км {дождь} 10/10 1200 м
[Sc]
+19.4 +17.7 90 +21 +21 комфорт 1015.4 1010.3
06 13.09 В 6 15 км {дождь} 4/4 1200 м
[Cu med, cong]
+20.0 +17.5 86 +23 +23 комфорт 1016.2 1011.1 +19.2 10
09 13.09 ЮВ 6 15 км 10/10 1200 м
[Sc]
+22.4 +19.7 85 +28 +28 душно 1017.8 1012.7
12 13.09 Ю 12 20 км 4/4 1500 м
[Cu med, cong]
+27.2 +18.2 58 +32 +32 очень
душно
1018.5 1013.6
15 13.09 ЮЗ 10 15 км 8/8 1200 м
[Cu Sc]
+26.4 +20.5 70 +33 +33 очень
душно
1019.2 1014.2
18 13.09 Ю 12 15 км 3/3 1000 м
[Cu med, cong]
+24.0 +21.5 86 +31 +31 очень
душно
1018.3 1013.3 +27.6
21 13.09 ЮВ 6 10 км ясно +20.6 +19.1 91 +25 +25 комфорт 1019.5 1014.4
00 14.09 ЮВ 6 10 км ясно +19.6 +17.8 89 +22 +22 комфорт 1019.9 1014.8
03 14.09 ЮВ 4 10 км ясно +18.4 +16.4 88 +19 +19 1019.8 1014.7
06 14.09 ЮВ 4 20 км ясно +17.0 +14.6 86 +17 +18 1019.9 1014.7 +16.2
09 14.09 З 4 20 км ясно +23.0 +18.6 76 +29 +36 очень
душно
1019.0 1013.9
12 14.09 З 4 20 км ясно +22.6 +11.1 48 +25 +32 комфорт 1016.8 1011.7
15 14.09 ЮЗ 6 20 км ясно +28.5 +8.3 28 +28 +29 жарко 1015.2 1010.2
18 14.09 ЮВ 4 15 км ясно +23.5 +16.3 64 +27 +27 душно 1014.2 1009.2 +29.0
21 14.09 ЮВ 4 10 км ясно +18.5 +13.7 74 +19 +19 1014.3 1009.2
00 15.09 В 4 10 км ясно +17.5 +14.0 80 +17 +17 1014.3 1009.2
03 15.09 В 4 10 км ясно +14.5 +12.8 90 +13 +13 1014.1 1009.0
06 15.09 В 4 20 км ясно +15.0 +12.8 87 +14 +15 1014.3 1009.2 +14.5
09 15.09 З 4 20 км ясно +22.5 +13.0 55 +25 +32 комфорт 1015.1 1010.1
12 15.09 З 4 20 км ясно +26.6 +11.1 38 +28 +35 жарко 1013.1 1008.2
15 15.09 штиль 0 20 км ясно +28.2 +13.4 40 +30 +33 жарко 1013.3 1008.4
18 15.09 ЮЗ 6 20 км ясно +25.0 +15.0 54 +28 +28 жарко 1012.8 1007.8 +29.0
21 15.09 В 2 10 км ясно +20.0 +18.2 89 +24 +24 комфорт 1013.7 1008.6
00 16.09 В 4 10 км ясно +17.2 +14.9 86 +17 +17 1014.9 1009.8
03 16.09 В 6 10 км ясно +16.4 +14.4 88 +15 +15 1014.3 1009.2
06 16.09 В 2 20 км ясно +16.2 +14.8 91 +16 +18 1014.9 1009.8 +15.0
09 16.09 З 6 20 км ясно +24.0 +18.4 71 +28 +33 душно 1015.5 1010.5
12 16.09 ЮЗ 2 20 км ясно +28.4 +13.5 40 +30 +41 жарко 1015.1 1010.2
15 16.09 Ю 2 20 км ясно +30.4 +10.4 29 +30 +33 жарко 1014.1 1009.3
18 16.09 Ю 10 20 км ясно +25.6 +11.1 40 +27 +27 жарко 1014.2 1009.3 +30.6
21 16.09 10 км ясно +21.0 +15.4 70 1015.1 1010.0
00 17.09 В 6 10 км ясно +19.6 +15.0 75 +21 +21 комфорт 1015.1 1010.0
03 17.09 В 6 10 км ясно +24.0 +20.6 81 +30 +30 очень
душно
1015.0 1010.0
06 17.09 Ю 10 20 км 8/0
[Ac und]
+18.6 +15.1 80 +18 +18 1015.7 1010.6 +17.2
09 17.09 З 6 15 км 8/0
[Ac und]
+24.0 +18.2 70 +28 +30 душно 1015.6 1010.6
12 17.09 СЗ 6 20 км 5/0
[Ac trans Ci sp]
+28.0 +18.9 58 +33 +37 очень
душно
1014.5 1009.6
15 17.09 Ю 6 20 км 8/0
[Ac und Ci sp]
+29.2 +18.3 52 +34 +35 очень
душно
1013.7 1008.8
18 17.09 Ю 6 20 км 5/0
[Ac trans]
+24.6 +13.5 50 +27 +27 жарко 1012.8 1007.8 +31.2
21 17.09 ЮВ 4 10 км 3/0
[Ac trans]
+24.0 +21.4 85 +30 +30 очень
душно
1013.8 1008.8
00 18.09 ЮВ 4 10 км 3/0
[Ac trans]
+22.0 +20.8 93 +28 +28 душно 1014.8 1009.8
03 18.09 ЮВ 4 10 км 3/0
[Ac trans]
+21.2 +19.3 89 +26 +26 душно 1014.8 1009.8
06 18.09 В 4 20 км 8/0
[Ac trans]
+20.0 +17.2 84 +23 +23 комфорт 1014.9 1009.8 +19.0
09 18.09 З 6 15 км 3/3 1000 м
[Cu med, cong]
+24.6 +19.2 72 +30 +32 очень
душно
1015.4 1010.4
12 18.09 Ю 6 15 км 5/5 1200 м
[Cu med, cong]
+28.4 +19.6 59 +34 +36 очень
душно
1014.2 1009.3
15 18.09 штиль 0 20 км ясно +28.2 +19.2 58 +34 +37 очень
душно
1013.8 1008.9
18 18.09 Ю 6 15 км 3/0
[Ac trans]
+23.0 +13.0 53 +26 +26 жарко 1013.6 1008.6 +29.2
21 18.09 В 4 10 км ясно +19.6 +14.6 73 +21 +21 комфорт 1013.7 1008.6
00 19.09 В 2 10 км ясно +18.8 +16.0 84 +20 +20 1013.9 1008.8
03 19.09 В 6 10 км ясно +16.4 +13.4 82 +15 +15 1013.3 1008.2
06 19.09 В 4 20 км 3/0
[Ci sp]
+14.8 +13.7 93 +14 +14 1013.1 1007.9 +14.2
09 19.09 З 4 20 км ясно +22.0 +13.9 60 +25 +32 комфорт 1011.9 1006.9
12 19.09 Ю 4 20 км 3/0
[Ac trans]
+27.0 +9.8 34 +27 +33 жарко 1011.5 1006.6

 

Местоположение метеостанции Shkodra (Албания): широта 42.10 долгота 19.53 высота над уровнем моря 43 м.

В архиве по умолчанию представлена погода в Shkodra за последнюю неделю. Архивные данные за месяц целиком и за предыдущие месяцы, начиная с января 2011 года, Вы можете получить, выбрав интересующий диапазон дат из раскрывающегося списка и нажав кнопку "Ввод!".

Внимание! Время в таблицах - всемирное. Для получения местного времени необходимо прибавить поправку, которая в Shkodra равна 1 ч.

Смотрите также архив погоды в соседних городах и на ближайших метеорологических станциях:

Погода в Bar (Черногория) (35 км)
Погода в Podgorica (Черногория) (38 км)
Погода в Podgorica-Grad (Черногория) (42 км)
Погода в Tivat (Черногория) (74 км)
Погода в Peshkopi (Албания) (88 км)
Погода в Tirana (Албания) (88 км)
Погода в Niksic (Черногория) (88 км)
Погода в Durres (Албания) (89 км)
Погода в Tirana-La Praka (Албания) (94 км)
Погода в Elbasan (Албания) (114 км)

Пояснения к столбцам:

Ветер - указаны скорость ветра в м/с - средняя за 10 мин, порывы в срок и между сроками (в фигурных скобках) и направление, откуда дует ветер: С - северный, СВ - северо-восточный, В - восточный, ЮВ - юго-восточный, Ю - южный, ЮЗ - юго-западный, З - западный, СЗ - северо-западный.
Видимость - горизонтальная дальность видимости в метрах или километрах. При видимости от 1 до 10 км при отсутствии осадков обычно наблюдается дымка, при ухудшении видимости до 1 км и менее - туман. В сухую погоду видимость может ухудшаться дымом, пылью или мглою.
Явления - указаны атмосферные явления, наблюдавшиеся в срок или в последний час перед сроком; фигурными скобками обозначены явления, наблюдавшиеся между сроками (за 1-3 часа до срока); квадратными скобками обозначены град или гололедные отложения с указанием их диаметра в мм.
Облачность - указаны через наклонную черту общая и нижняя облачность в баллах и высота нижней границы облаков в метрах; квадратными скобками обозначены формы облаков: Ci - перистые, Cs - перисто-слоистые, Cc - перисто-кучевые, Ac - высококучевые, As - высокослоистые, Sc - слоисто-кучевые, Ns - слоисто-дождевые, Cu - кучевые, Cb - кучево-дождевые. Подробнее классификацию облаков см. в Атласе облаков (PDF).
T - Температура воздуха - температура, измеренная на высоте 2 м над землей.
Td - Температура точки росы - температура, при понижении до которой содержащийся в воздухе водяной пар достигнет насыщения.
f - Относительная влажность воздуха - влажноcть воздуха, измеренная на высоте 2 м над землей.
Te - Эффективная температура - температура, которую ощущает одетый по сезону человек в тени. Характеристика душности погоды. При расчете учитывается влияние влажности воздуха и скорости ветра на теплоощущения человека.
Tes - Эффективная температура на солнце - температура, которую ощущает человек, с поправкой на солнечный нагрев. Характеристика знойности погоды. Зависит от высоты солнца над горизонтом, облачности и скорости ветра. Ночью, в пасмурную погоду, а также при ветре 12 м/с и более поправка равна нулю.
P - Атмосферное давление - приведенное к уровню моря атмосферное давление.
Po - Атмосферное давление - измеренное на уровне метеостанции атмосферное давление.
Tmin - Минимальная температура - минимум температуры воздуха на высоте 2 м над землей.
Tmax - Максимальная температура - максимум температуры воздуха на высоте 2 м над землей.
R - Количество осадков - Количество выпавших осадков за период времени, мм. При наведении курсора мыши на число - период времени, за который выпало указанное количество осадков.
R24 - Количество осадков - Количество выпавших осадков за 24 часа, мм.
S - Снежный покров - Высота снежного покрова, см. При наведении курсора мыши на число - состояние снежного покрова и степень покрытия местности в баллах.